User: anonymous   Login
Location: Unspecified
(0.0000°N, 0.0000°E)
Time: 08:03:15
(UTC+00:00)
Language:

OPTOS - Orbit

View from above orbital plane
View from above orbital plane
View from above satellite
View from above satellite

Ground track
Ground track

The orbit data is extracted from the following two-line orbital elements,

1 39429U 13066P   19345.78360704  .00000380  00000-0  75045-4 0  9996
2 39429  97.7597 294.9368 0147104  43.6049 317.6671 14.61084440322614
Epoch (UTC): 11 December 2019 18:48:23
Eccentricity: 0.0147104
inclination: 97.7597°
perigee height: 586 km
apogee height: 793 km
right ascension of ascending node: 294.9368°
argument of perigee: 43.6049°
revolutions per day: 14.61084440
mean anomaly at epoch: 317.6671°
orbit number at epoch: 32261

The dashed part of the orbit path shows where the satellite is in the earth's shadow,  

DLR